Location: McFarlands Corners
(41.4117°N, 81.3382°W)
Time: 13:34:21
(UTC+00:00)

A-11 Canister half - Pass Details

Date: 25 February 2026
Orbit: 1525 x 1683 km, 47.3° (Epoch: 11 March)

Event Time Altitude Azimuth Distance (km) Brightness Sun altitude
Rises 22:29:53 0° 275° (W) 4,728 13.0 6.7°
Reaches altitude 10° 22:33:02 10° 279° (W) 3,729 12.4 6.1°
Maximum altitude 22:42:19 61° 360° (N) 1,703 9.3 4.5°
Drops below altitude 10° 22:51:30 10° 80° (E) 3,693 10.4 2.8°
Sets 22:54:37 0° 84° (E) 4,682 10.8 2.2°
